COSMOS 2251 DEB, 37295

Orbit data source: Space-Track

COSMOS 2251 DEB, 37295 is space debris in LEO originally from a launch on Wed, 16 Jun 1993 UTC launched from the Plesetsk Missile And Space Complex (PKMTR). The debris from Iridium 33, an American commercial communications satellite, has been tracked extensively since its accidental collision with the defunct Russian satellite Cosmos 2251 in 2009. This event, occurring at high speed in low Earth orbit (LEO), generated thousands of pieces of space debris, significantly increasing the risk of further collisions. The Iridium 33 debris cloud has impacted space traffic management and orbital debris mitigation strategies, making it a subject of ongoing study in space situational awareness.

Loading next visibility...
Identifier
37295, 1993-036BJK
Orbit
LEO
Country
Flag of CISCIS
Related business
Manufacturer
Unknown
Mission
Spacecraft
Bus & Motor
Unknown
Mass
Unknown
Launch date (UTC)
1993-06-16 (33 years ago)
Launch vehicle
Unknown
Launch site
Plesetsk Missile And Space Complex (PKMTR)
Object type
Payload
Rocket body
Debris
Shape & HBR
Unknown shape, 0.1 m
Radar Cross Section
Small (<0.1 m²)

Expand to show TLE details & history
Last TLE update: 22 hours ago

TLE from 22 hours ago
0 COSMOS 2251 DEB
1 37295U 93036BJK 26122.67012284  .00002491  00000-0  45179-3 0  9995
2 37295  74.0070   9.7258 0045549 154.4507 205.8928 14.66150196843693
Epoch: 2026-05-02T16:04Z
TLE epoch observation values (Epoch: 2026-05-02T16:04:58.613Z)
Latitude
0.00003°
Longitude
-92.10311°
Altitude
704.958 km
Speed
7.488 km/s
True Right ascension
00h 38m 54s
True Declination
0° 00' 00"
Sunlit
Object was in daylight at epoch
Visualization orbit readout
Latitude
Unknown
Longitude
Unknown
Altitude
Unknown
Speed
Unknown
Apparent Right ascension
Unknown
Apparent Declination
Unknown
Sunlit
N/A
Visualization observer readout
Local Sidereal Time
21:48:31
Azimuth
Unknown
Elevation
Unknown
Doppler factor
Unknown
Orbital elements
Apogee altitude
703.086 km
Perigee altitude
638.87 km
Semi-major axis
7,049.115 km
Eccentricity
0.00455
Inclination
74.007°
RAAN
9.7258°
Arg. of periapsis
154.4507°
True anomaly
205.66603°
Mean anomaly
205.8928°
Eccentric anomaly
205.7793°
Mean motion
3.66726 °/min
Orbital period
98.17 mins
BSTAR
0.00045179
Loading maneuver chart data...
Computing Atmospheric mass density...
Loading historical data...
Loading historical data...
Loading historical data...
Loading historical data...
Loading historical data...
Loading historical data...
Loading historical data...

Documentation

Showing up to 5 results
|